FLX9911 SBFZ-SBPS

Flight info

Callsign FLX9911
Flight time 1h 50m
Altitude 32000
Route UGEPO UZ19 DABAD DCT SVD DCT VUREK UZ73 DAKEN DCT RAIRA
Aircraft B738/M-SDE2E3FGHIRWXY/LB1

Departure

Time 2026-04-26 16:02
Airport Pinto Martins International Airport (SBFZ)

Arrival

Time 2026-04-26 17:52
Airport Porto Seguro International Airport (SBPS)
Time Latitude Longitude Altitude Speed Heading
2026-04-26 15:44 -3.77749 -38.54159 90 ft 0 kts 193°
2026-04-26 15:56 -3.77736 -38.54156 92 ft 4 kts 195°
2026-04-26 15:56 -3.77710 -38.54148 91 ft 4 kts 202°
2026-04-26 15:56 -3.77686 -38.54135 91 ft 4 kts 220°
2026-04-26 15:57 -3.77673 -38.54117 92 ft 4 kts 273°
2026-04-26 15:57 -3.77673 -38.54111 92 ft 1 kts 284°
2026-04-26 15:59 -3.77673 -38.54112 92 ft 0 kts 284°
2026-04-26 15:59 -3.77671 -38.54120 91 ft 3 kts 284°
2026-04-26 15:59 -3.77663 -38.54154 92 ft 7 kts 284°
2026-04-26 15:59 -3.77647 -38.54214 91 ft 11 kts 285°
2026-04-26 16:00 -3.77624 -38.54299 93 ft 14 kts 285°
2026-04-26 16:00 -3.77579 -38.54371 91 ft 11 kts 346°
2026-04-26 16:00 -3.77501 -38.54389 92 ft 13 kts 351°
2026-04-26 16:00 -3.77408 -38.54374 91 ft 14 kts 12°
2026-04-26 16:01 -3.77353 -38.54324 83 ft 13 kts 87°
2026-04-26 16:01 -3.77420 -38.54050 93 ft 79 kts 105°
2026-04-26 16:01 -3.77630 -38.53262 92 ft 152 kts 104°
2026-04-26 16:01 -3.77935 -38.52061 359 ft 196 kts 104°
2026-04-26 16:02 -3.78297 -38.50735 1356 ft 193 kts 105°
2026-04-26 16:02 -3.78672 -38.49459 2464 ft 197 kts 112°
2026-04-26 16:02 -3.79581 -38.48383 2743 ft 218 kts 153°
2026-04-26 16:02 -3.80588 -38.48138 2927 ft 231 kts 180°
2026-04-26 16:03 -3.82795 -38.48401 3402 ft 252 kts 184°
2026-04-26 16:03 -3.84592 -38.48548 3916 ft 264 kts 183°
2026-04-26 16:03 -3.86430 -38.48665 4773 ft 265 kts 182°
2026-04-26 16:03 -3.88280 -38.48764 5581 ft 268 kts 181°
2026-04-26 16:04 -3.90165 -38.48851 6321 ft 274 kts 181°
2026-04-26 16:04 -3.92081 -38.48932 7093 ft 276 kts 181°
2026-04-26 16:04 -3.94007 -38.49010 7815 ft 280 kts 181°
2026-04-26 16:04 -3.95976 -38.49089 8497 ft 286 kts 181°
2026-04-26 16:05 -3.97980 -38.49172 9222 ft 290 kts 182°
2026-04-26 16:05 -4.00011 -38.49264 9928 ft 295 kts 182°
2026-04-26 16:05 -4.02093 -38.49360 10356 ft 310 kts 182°
2026-04-26 16:05 -4.04334 -38.49464 10514 ft 333 kts 182°
2026-04-26 16:06 -4.06691 -38.49573 10676 ft 353 kts 182°
2026-04-26 16:06 -4.09241 -38.49691 10838 ft 371 kts 182°
2026-04-26 16:06 -4.11835 -38.49812 11245 ft 379 kts 182°
2026-04-26 16:06 -4.14484 -38.49934 11819 ft 382 kts 182°
2026-04-26 16:07 -4.17144 -38.50058 12425 ft 384 kts 182°
2026-04-26 16:07 -4.19824 -38.50181 12994 ft 386 kts 182°
2026-04-26 16:07 -4.22518 -38.50305 13554 ft 389 kts 182°
2026-04-26 16:07 -4.25238 -38.50431 14034 ft 393 kts 182°
2026-04-26 16:08 -4.27971 -38.50557 14522 ft 395 kts 182°
2026-04-26 16:08 -4.29831 -38.50642 14851 ft 396 kts 182°
2026-04-26 16:08 -4.33495 -38.50811 15489 ft 399 kts 182°
2026-04-26 16:08 -4.36282 -38.50939 15935 ft 402 kts 182°
2026-04-26 16:09 -4.39093 -38.51069 16374 ft 405 kts 182°
2026-04-26 16:09 -4.41919 -38.51199 16815 ft 408 kts 182°
2026-04-26 16:09 -4.44768 -38.51328 17251 ft 411 kts 181°
2026-04-26 16:09 -4.47634 -38.51389 17687 ft 413 kts 180°
2026-04-26 16:10 -4.50517 -38.51393 18132 ft 416 kts 179°
2026-04-26 16:10 -4.53419 -38.51379 18499 ft 419 kts 179°
2026-04-26 16:10 -4.56340 -38.51366 18831 ft 421 kts 179°
2026-04-26 16:10 -4.59282 -38.51359 19152 ft 424 kts 179°
2026-04-26 16:11 -4.62244 -38.51358 19480 ft 427 kts 179°
2026-04-26 16:11 -4.65227 -38.51363 19800 ft 430 kts 179°
2026-04-26 16:11 -4.68227 -38.51371 20122 ft 432 kts 179°
2026-04-26 16:11 -4.71213 -38.51380 20422 ft 435 kts 179°
2026-04-26 16:12 -4.74247 -38.51389 20727 ft 438 kts 179°
2026-04-26 16:12 -4.77298 -38.51399 21021 ft 440 kts 179°
2026-04-26 16:12 -4.83458 -38.51418 21611 ft 445 kts 179°
2026-04-26 16:13 -4.86559 -38.51427 21894 ft 447 kts 179°
2026-04-26 16:13 -4.89684 -38.51436 22174 ft 449 kts 179°
2026-04-26 16:13 -4.92817 -38.51446 22447 ft 452 kts 179°
2026-04-26 16:13 -4.95968 -38.51455 22722 ft 454 kts 179°
2026-04-26 16:14 -4.99134 -38.51465 22976 ft 456 kts 179°
2026-04-26 16:14 -5.02312 -38.51474 23228 ft 458 kts 179°
2026-04-26 16:14 -5.08714 -38.51494 23680 ft 462 kts 179°
2026-04-26 16:15 -5.11936 -38.51497 23892 ft 463 kts 178°
2026-04-26 16:15 -5.15169 -38.51448 24119 ft 464 kts 177°
2026-04-26 16:15 -5.18403 -38.51368 24334 ft 466 kts 177°
2026-04-26 16:16 -5.24902 -38.51188 24745 ft 468 kts 177°
2026-04-26 16:16 -5.28169 -38.51103 24952 ft 470 kts 177°
2026-04-26 16:16 -5.31436 -38.51024 25151 ft 471 kts 177°
2026-04-26 16:16 -5.34717 -38.50947 25351 ft 472 kts 177°
2026-04-26 16:17 -5.37999 -38.50872 25548 ft 473 kts 177°
2026-04-26 16:17 -5.41298 -38.50797 25745 ft 474 kts 177°
2026-04-26 16:17 -5.44606 -38.50722 25937 ft 475 kts 177°
2026-04-26 16:17 -5.47914 -38.50646 26127 ft 476 kts 177°
2026-04-26 16:18 -5.51232 -38.50570 26319 ft 477 kts 177°
2026-04-26 16:18 -5.57888 -38.50417 26676 ft 479 kts 177°
2026-04-26 16:19 -5.64529 -38.50264 27032 ft 481 kts 177°
2026-04-26 16:19 -5.67877 -38.50181 27203 ft 482 kts 177°
2026-04-26 16:19 -5.73505 -38.50035 27481 ft 484 kts 177°
2026-04-26 16:20 -5.77970 -38.49918 27711 ft 485 kts 177°
2026-04-26 16:20 -5.84725 -38.49744 28071 ft 485 kts 177°
2026-04-26 16:20 -5.88094 -38.49658 28334 ft 484 kts 177°
2026-04-26 16:21 -5.91452 -38.49572 28625 ft 482 kts 176°
2026-04-26 16:21 -5.94799 -38.49486 28907 ft 480 kts 176°
2026-04-26 16:21 -5.98136 -38.49401 29149 ft 480 kts 176°
2026-04-26 16:21 -6.01473 -38.49315 29338 ft 480 kts 176°
2026-04-26 16:22 -6.04812 -38.49230 29570 ft 480 kts 176°
2026-04-26 16:22 -6.08142 -38.49144 29858 ft 478 kts 176°
2026-04-26 16:22 -6.11460 -38.49059 30134 ft 476 kts 176°
2026-04-26 16:22 -6.14778 -38.48974 30344 ft 476 kts 176°
2026-04-26 16:23 -6.18091 -38.48889 30520 ft 477 kts 176°
2026-04-26 16:23 -6.21407 -38.48804 30703 ft 477 kts 176°
2026-04-26 16:23 -6.24726 -38.48718 30934 ft 476 kts 176°
2026-04-26 16:23 -6.28037 -38.48634 31172 ft 476 kts 176°
2026-04-26 16:24 -6.31345 -38.48549 31385 ft 476 kts 176°
2026-04-26 16:24 -6.34654 -38.48464 31587 ft 476 kts 176°
2026-04-26 16:24 -6.37966 -38.48379 31812 ft 475 kts 176°
2026-04-26 16:24 -6.41271 -38.48294 31937 ft 476 kts 176°
2026-04-26 16:25 -6.47912 -38.48123 31933 ft 477 kts 176°
2026-04-26 16:25 -6.54496 -38.47954 31935 ft 474 kts 176°
2026-04-26 16:26 -6.59973 -38.47817 31935 ft 473 kts 176°
2026-04-26 16:26 -6.67662 -38.47637 31934 ft 472 kts 176°
2026-04-26 16:27 -6.74220 -38.47485 31935 ft 471 kts 176°
2026-04-26 16:27 -6.80780 -38.47331 31939 ft 472 kts 176°
2026-04-26 16:28 -6.87351 -38.47175 31937 ft 473 kts 176°
2026-04-26 16:28 -6.93948 -38.47020 31938 ft 474 kts 176°
2026-04-26 16:29 -7.00549 -38.46864 31940 ft 475 kts 176°
2026-04-26 16:29 -7.07133 -38.46709 31940 ft 477 kts 176°
2026-04-26 16:30 -7.13813 -38.46536 31937 ft 477 kts 176°
2026-04-26 16:30 -7.20456 -38.46353 31942 ft 478 kts 176°
2026-04-26 16:31 -7.27063 -38.46173 31938 ft 478 kts 176°
2026-04-26 16:31 -7.33720 -38.45994 31942 ft 478 kts 176°
2026-04-26 16:32 -7.39244 -38.45845 31938 ft 478 kts 176°
2026-04-26 16:32 -7.47010 -38.45662 31936 ft 478 kts 177°
2026-04-26 16:33 -7.53650 -38.45528 31942 ft 477 kts 177°
2026-04-26 16:33 -7.60293 -38.45387 31942 ft 477 kts 176°
2026-04-26 16:34 -7.66933 -38.45197 31940 ft 477 kts 176°
2026-04-26 16:34 -7.72443 -38.45067 31947 ft 477 kts 177°
2026-04-26 16:35 -7.79091 -38.44919 31936 ft 477 kts 177°
2026-04-26 16:35 -7.85723 -38.44767 31943 ft 477 kts 177°
2026-04-26 16:36 -7.92366 -38.44613 31937 ft 477 kts 177°
2026-04-26 16:36 -7.99010 -38.44457 31939 ft 477 kts 177°
2026-04-26 16:37 -8.05647 -38.44286 31941 ft 477 kts 177°
2026-04-26 16:37 -8.12281 -38.44113 31942 ft 477 kts 177°
2026-04-26 16:38 -8.18917 -38.43941 31939 ft 477 kts 177°
2026-04-26 16:38 -8.25558 -38.43771 31947 ft 477 kts 177°
2026-04-26 16:39 -8.32201 -38.43599 31940 ft 477 kts 177°
2026-04-26 16:39 -8.38837 -38.43428 31937 ft 477 kts 177°
2026-04-26 16:40 -8.45427 -38.43257 31940 ft 477 kts 177°
2026-04-26 16:40 -8.52061 -38.43086 31940 ft 477 kts 177°
2026-04-26 16:41 -8.58697 -38.42922 31943 ft 477 kts 177°
2026-04-26 16:41 -8.65335 -38.42762 31938 ft 477 kts 177°
2026-04-26 16:42 -8.71983 -38.42601 31941 ft 477 kts 177°
2026-04-26 16:42 -8.78622 -38.42440 31942 ft 477 kts 177°
2026-04-26 16:43 -8.85255 -38.42278 31945 ft 477 kts 177°
2026-04-26 16:43 -8.91887 -38.42116 31945 ft 477 kts 177°
2026-04-26 16:44 -8.98527 -38.41955 31946 ft 476 kts 177°
2026-04-26 16:44 -9.05152 -38.41793 31948 ft 476 kts 177°
2026-04-26 16:45 -9.11775 -38.41631 31952 ft 476 kts 177°
2026-04-26 16:45 -9.18395 -38.41470 31956 ft 476 kts 177°
2026-04-26 16:46 -9.25023 -38.41308 31961 ft 476 kts 177°
2026-04-26 16:46 -9.31642 -38.41146 31961 ft 476 kts 177°
2026-04-26 16:47 -9.38272 -38.40984 31963 ft 476 kts 178°
2026-04-26 16:47 -9.44856 -38.40826 31965 ft 476 kts 178°
2026-04-26 16:48 -9.51486 -38.40670 31962 ft 476 kts 178°
2026-04-26 16:48 -9.58104 -38.40512 31963 ft 476 kts 177°
2026-04-26 16:49 -9.64662 -38.40356 31958 ft 476 kts 177°
2026-04-26 16:49 -9.71289 -38.40198 31961 ft 476 kts 177°
2026-04-26 16:50 -9.77905 -38.40040 31957 ft 476 kts 177°
2026-04-26 16:50 -9.84483 -38.39877 31961 ft 476 kts 177°
2026-04-26 16:51 -9.91065 -38.39711 31953 ft 476 kts 177°
2026-04-26 16:51 -9.97678 -38.39547 31957 ft 475 kts 177°
2026-04-26 16:52 -10.03222 -38.39410 31956 ft 475 kts 177°
2026-04-26 16:52 -10.10910 -38.39218 31947 ft 475 kts 177°
2026-04-26 16:53 -10.17513 -38.39054 31957 ft 475 kts 177°
2026-04-26 16:53 -10.24115 -38.38890 31954 ft 475 kts 177°
2026-04-26 16:54 -10.30713 -38.38724 31953 ft 474 kts 177°
2026-04-26 16:54 -10.37319 -38.38558 31953 ft 474 kts 177°
2026-04-26 16:55 -10.43914 -38.38391 31950 ft 474 kts 177°
2026-04-26 16:55 -10.50518 -38.38224 31951 ft 474 kts 177°
2026-04-26 16:56 -10.60412 -38.37974 31952 ft 474 kts 177°
2026-04-26 16:57 -10.67016 -38.37807 31949 ft 474 kts 177°
2026-04-26 16:57 -10.76894 -38.37557 31947 ft 473 kts 177°
2026-04-26 16:58 -10.82370 -38.37418 31951 ft 473 kts 177°
2026-04-26 16:59 -10.93316 -38.37141 31946 ft 473 kts 177°
2026-04-26 17:00 -11.06466 -38.36808 31945 ft 472 kts 176°
2026-04-26 17:00 -11.16314 -38.36558 31943 ft 472 kts 176°
2026-04-26 17:01 -11.22872 -38.36389 31947 ft 471 kts 176°
2026-04-26 17:01 -11.29437 -38.36216 31947 ft 471 kts 176°
2026-04-26 17:02 -11.35986 -38.36043 31947 ft 471 kts 176°
2026-04-26 17:02 -11.42543 -38.35870 31950 ft 471 kts 176°
2026-04-26 17:03 -11.49085 -38.35698 31950 ft 470 kts 176°
2026-04-26 17:03 -11.55591 -38.35531 31952 ft 470 kts 177°
2026-04-26 17:04 -11.62130 -38.35367 31955 ft 470 kts 177°
2026-04-26 17:04 -11.68672 -38.35202 31956 ft 469 kts 177°
2026-04-26 17:05 -11.75197 -38.35037 31957 ft 469 kts 177°
2026-04-26 17:05 -11.81727 -38.34871 31962 ft 469 kts 177°
2026-04-26 17:06 -11.88252 -38.34706 31964 ft 468 kts 177°
2026-04-26 17:06 -11.94760 -38.34541 31961 ft 468 kts 177°
2026-04-26 17:07 -12.01265 -38.34376 31961 ft 468 kts 177°
2026-04-26 17:07 -12.07734 -38.34211 31965 ft 467 kts 177°
2026-04-26 17:08 -12.14239 -38.34046 31959 ft 468 kts 177°
2026-04-26 17:08 -12.20756 -38.33880 31974 ft 468 kts 177°
2026-04-26 17:09 -12.26204 -38.33742 31964 ft 468 kts 177°
2026-04-26 17:09 -12.33771 -38.33550 31969 ft 468 kts 177°
2026-04-26 17:10 -12.40299 -38.33383 31970 ft 468 kts 177°
2026-04-26 17:10 -12.46805 -38.33218 31966 ft 468 kts 177°
2026-04-26 17:11 -12.53312 -38.33052 31967 ft 468 kts 177°
2026-04-26 17:11 -12.59815 -38.32886 31966 ft 468 kts 177°
2026-04-26 17:12 -12.69570 -38.32637 31967 ft 467 kts 177°
2026-04-26 17:13 -12.79325 -38.32388 31967 ft 467 kts 177°
2026-04-26 17:14 -12.89045 -38.32144 31969 ft 467 kts 178°
2026-04-26 17:14 -12.95502 -38.32932 31977 ft 469 kts 189°
2026-04-26 17:14 -12.98742 -38.33599 31966 ft 470 kts 189°
2026-04-26 17:15 -13.08317 -38.35527 31964 ft 469 kts 189°
2026-04-26 17:16 -13.14744 -38.36780 31968 ft 469 kts 189°
2026-04-26 17:16 -13.21162 -38.38022 31966 ft 470 kts 189°
2026-04-26 17:17 -13.27584 -38.39267 31971 ft 470 kts 189°
2026-04-26 17:17 -13.34013 -38.40514 31965 ft 470 kts 189°
2026-04-26 17:18 -13.40452 -38.41766 31968 ft 470 kts 189°
2026-04-26 17:18 -13.46894 -38.43018 31965 ft 471 kts 189°
2026-04-26 17:19 -13.56538 -38.44894 31965 ft 471 kts 189°
2026-04-26 17:19 -13.61902 -38.45938 31965 ft 471 kts 189°
2026-04-26 17:20 -13.67257 -38.46981 31967 ft 471 kts 189°
2026-04-26 17:20 -13.75839 -38.48654 31966 ft 471 kts 189°
2026-04-26 17:21 -13.81198 -38.49699 31968 ft 471 kts 189°
2026-04-26 17:21 -13.87654 -38.50958 31968 ft 472 kts 189°
2026-04-26 17:22 -13.94017 -38.52618 31972 ft 473 kts 196°
2026-04-26 17:22 -14.00278 -38.54705 31967 ft 473 kts 197°
2026-04-26 17:23 -14.06543 -38.56787 31968 ft 473 kts 196°
2026-04-26 17:23 -14.12835 -38.58828 31968 ft 474 kts 196°
2026-04-26 17:24 -14.19124 -38.60848 31967 ft 474 kts 196°
2026-04-26 17:24 -14.25426 -38.62872 31966 ft 474 kts 196°
2026-04-26 17:25 -14.31717 -38.64897 31968 ft 474 kts 196°
2026-04-26 17:25 -14.38010 -38.66924 31965 ft 474 kts 196°
2026-04-26 17:26 -14.44303 -38.68952 31968 ft 474 kts 196°
2026-04-26 17:26 -14.50607 -38.70986 31967 ft 474 kts 196°
2026-04-26 17:27 -14.56902 -38.73018 31967 ft 474 kts 196°
2026-04-26 17:27 -14.63165 -38.75040 31965 ft 475 kts 197°
2026-04-26 17:28 -14.69471 -38.77090 31979 ft 476 kts 197°
2026-04-26 17:28 -14.75834 -38.79163 31981 ft 477 kts 197°
2026-04-26 17:29 -14.81106 -38.80882 31979 ft 478 kts 197°
2026-04-26 17:29 -14.88520 -38.83298 31304 ft 487 kts 197°
2026-04-26 17:30 -14.91744 -38.84350 30625 ft 484 kts 197°
2026-04-26 17:30 -14.94950 -38.85396 29821 ft 485 kts 196°
2026-04-26 17:30 -14.98175 -38.86448 28859 ft 486 kts 196°
2026-04-26 17:30 -15.01405 -38.87502 27952 ft 486 kts 197°
2026-04-26 17:31 -15.04633 -38.88556 27017 ft 487 kts 197°
2026-04-26 17:31 -15.07863 -38.89612 26328 ft 483 kts 197°
2026-04-26 17:31 -15.11055 -38.90656 25617 ft 480 kts 197°
2026-04-26 17:31 -15.14231 -38.91694 24957 ft 476 kts 197°
2026-04-26 17:32 -15.17374 -38.92722 24277 ft 473 kts 197°
2026-04-26 17:32 -15.20503 -38.93811 23441 ft 475 kts 199°
2026-04-26 17:32 -15.23595 -38.94975 22648 ft 472 kts 199°
2026-04-26 17:32 -15.26670 -38.96161 21964 ft 467 kts 199°
2026-04-26 17:33 -15.29696 -38.97331 21303 ft 462 kts 199°
2026-04-26 17:33 -15.32701 -38.98482 20658 ft 457 kts 199°
2026-04-26 17:33 -15.35676 -38.99612 20005 ft 454 kts 199°
2026-04-26 17:34 -15.41557 -39.01827 18721 ft 447 kts 198°
2026-04-26 17:34 -15.44461 -39.02918 18056 ft 444 kts 198°
2026-04-26 17:34 -15.47359 -39.04007 17368 ft 440 kts 199°
2026-04-26 17:34 -15.50220 -39.05083 16714 ft 436 kts 199°
2026-04-26 17:35 -15.53060 -39.06153 16083 ft 432 kts 199°
2026-04-26 17:35 -15.55879 -39.07215 15463 ft 427 kts 199°
2026-04-26 17:35 -15.58664 -39.08264 14830 ft 424 kts 199°
2026-04-26 17:35 -15.61422 -39.09303 14214 ft 421 kts 200°
2026-04-26 17:36 -15.64171 -39.10307 13569 ft 417 kts 198°
2026-04-26 17:36 -15.66920 -39.11143 12898 ft 403 kts 195°
2026-04-26 17:36 -15.69592 -39.11869 12317 ft 394 kts 194°
2026-04-26 17:36 -15.72200 -39.12557 11764 ft 390 kts 195°
2026-04-26 17:37 -15.74847 -39.13261 11211 ft 387 kts 195°
2026-04-26 17:37 -15.77410 -39.13955 11045 ft 373 kts 195°
2026-04-26 17:37 -15.79841 -39.14622 10867 ft 359 kts 196°
2026-04-26 17:38 -15.84532 -39.15926 10565 ft 336 kts 196°
2026-04-26 17:38 -15.86751 -39.16547 10432 ft 325 kts 196°
2026-04-26 17:38 -15.88896 -39.17149 10303 ft 315 kts 197°
2026-04-26 17:38 -15.90986 -39.17735 10170 ft 306 kts 197°
2026-04-26 17:39 -15.93016 -39.18306 10046 ft 297 kts 197°
2026-04-26 17:39 -15.94964 -39.18852 9880 ft 291 kts 197°
2026-04-26 17:39 -15.96937 -39.19406 9566 ft 289 kts 197°
2026-04-26 17:39 -15.98876 -39.19952 9274 ft 287 kts 197°
2026-04-26 17:40 -16.00775 -39.20486 8990 ft 285 kts 197°
2026-04-26 17:40 -16.02066 -39.20849 8793 ft 284 kts 197°
2026-04-26 17:40 -16.04582 -39.21556 8415 ft 282 kts 197°
2026-04-26 17:40 -16.06471 -39.22087 8135 ft 280 kts 197°
2026-04-26 17:41 -16.08344 -39.22615 7849 ft 279 kts 197°
2026-04-26 17:41 -16.10214 -39.23140 7567 ft 277 kts 196°
2026-04-26 17:41 -16.12078 -39.23665 7283 ft 277 kts 196°
2026-04-26 17:41 -16.13935 -39.24187 6999 ft 275 kts 196°
2026-04-26 17:42 -16.15785 -39.24707 6719 ft 274 kts 196°
2026-04-26 17:42 -16.17627 -39.25226 6438 ft 274 kts 196°
2026-04-26 17:42 -16.19470 -39.25745 6145 ft 275 kts 195°
2026-04-26 17:42 -16.21325 -39.26267 5870 ft 275 kts 195°
2026-04-26 17:43 -16.23155 -39.26781 5650 ft 271 kts 195°
2026-04-26 17:43 -16.24953 -39.27287 5457 ft 266 kts 195°
2026-04-26 17:43 -16.26722 -39.27785 5272 ft 261 kts 195°
2026-04-26 17:43 -16.28455 -39.28273 5086 ft 256 kts 195°
2026-04-26 17:44 -16.30165 -39.28754 4892 ft 252 kts 195°
2026-04-26 17:44 -16.31825 -39.29222 4715 ft 248 kts 195°
2026-04-26 17:44 -16.33505 -39.29695 4519 ft 244 kts 195°
2026-04-26 17:44 -16.35108 -39.30146 4337 ft 240 kts 195°
2026-04-26 17:45 -16.36706 -39.30597 4180 ft 234 kts 195°
2026-04-26 17:45 -16.38256 -39.31033 4025 ft 230 kts 195°
2026-04-26 17:45 -16.39801 -39.31408 3839 ft 228 kts 184°
2026-04-26 17:45 -16.41283 -39.31020 3658 ft 216 kts 146°
2026-04-26 17:46 -16.42441 -39.30121 3503 ft 202 kts 143°
2026-04-26 17:46 -16.43556 -39.29290 3341 ft 192 kts 144°
2026-04-26 17:46 -16.44617 -39.28508 3181 ft 184 kts 144°
2026-04-26 17:46 -16.45665 -39.27733 3068 ft 185 kts 144°
2026-04-26 17:47 -16.46709 -39.26961 2936 ft 184 kts 144°
2026-04-26 17:47 -16.47409 -39.26435 2841 ft 183 kts 141°
2026-04-26 17:47 -16.48143 -39.24967 2630 ft 175 kts 83°
2026-04-26 17:47 -16.47857 -39.23787 2542 ft 159 kts 76°
2026-04-26 17:48 -16.47703 -39.22694 2386 ft 147 kts 84°
2026-04-26 17:48 -16.47523 -39.21661 2348 ft 148 kts 74°
2026-04-26 17:48 -16.47277 -39.20613 2181 ft 148 kts 78°
2026-04-26 17:48 -16.46950 -39.19606 2072 ft 146 kts 67°
2026-04-26 17:49 -16.46656 -39.18587 1973 ft 147 kts 76°
2026-04-26 17:49 -16.46396 -39.17532 1865 ft 151 kts 74°
2026-04-26 17:49 -16.46119 -39.16492 1695 ft 149 kts 75°
2026-04-26 17:49 -16.45844 -39.15472 1523 ft 144 kts 75°
2026-04-26 17:50 -16.45577 -39.14475 1353 ft 145 kts 75°
2026-04-26 17:50 -16.45307 -39.13479 1118 ft 138 kts 73°
2026-04-26 17:50 -16.45051 -39.12536 973 ft 137 kts 74°
2026-04-26 17:50 -16.44789 -39.11563 774 ft 138 kts 72°
2026-04-26 17:51 -16.44525 -39.10590 586 ft 140 kts 74°
2026-04-26 17:51 -16.44270 -39.09642 372 ft 136 kts 73°
2026-04-26 17:51 -16.44013 -39.08697 176 ft 135 kts 74°
2026-04-26 17:51 -16.43806 -39.07924 159 ft 64 kts 74°
2026-04-26 17:52 -16.43760 -39.07693 161 ft 11 kts 102°
2026-04-26 17:52 -16.43744 -39.07655 161 ft 4 kts 24°
2026-04-26 17:52 -16.43726 -39.07665 161 ft 3 kts 298°
2026-04-26 17:52 -16.43731 -39.07687 161 ft 3 kts 250°
2026-04-26 17:53 -16.43739 -39.07710 161 ft 4 kts 250°
2026-04-26 17:53 -16.43754 -39.07751 161 ft 9 kts 249°
2026-04-26 17:53 -16.43785 -39.07845 160 ft 18 kts 253°
2026-04-26 17:54 -16.43886 -39.08133 159 ft 10 kts 197°
2026-04-26 17:54 -16.43967 -39.08123 159 ft 14 kts 163°
2026-04-26 17:54 -16.44017 -39.08074 159 ft 9 kts 147°
2026-04-26 17:54 -16.44054 -39.08060 159 ft 0 kts 163°